Terug naar catalogus

MKA PN2

RELEK

ActiefWetenschapSSO
NORAD 40070·PAYLOAD·🇷🇺 Russia

Gelanceerd Jul 8, 2014 vanaf Baikonur Cosmodrome

Loading…

Volgende Passages (komende 24 uur)

TLE

VersSource: Space-Track

Epoch: Sep 14, 2026, 09:10 UTC

1 40070U 14037B   26257.38260130  .00000235  00000-0  58015-4 0  9994
2 40070  98.0810 232.4260 0130644 151.0051 209.8487 14.55732814646069

Volg MKA PN2 in realtime met AllMySat

Download on the App Store